contact:dominique.lefevre@mio.osupytheas.fr, maurice.libes@osupytheas.fr, didier.mallarino@osupytheas.fr
Project:EMSO http://www.emso-fr.org/EMSO-France
Depth: 2436.0 m
Title:EMSO Ligure Ouest : Data MII capteur AQUADOPP
Date,Latitude,Longitude,X_East,Y_North,Z_Up,Amplitude_X,Amplitude_Y,Amplitude_Z,Batterie,SoundSpeed,Heading,Pitch,Roll,Pressure,TIS,Speed,Direction
, degrees North, degrees East, m.s-1, m.s-1,m.s-1, 1, 1, 1, Volt, m.s-1, degree, degree, degree, dbar, degree_C, m.s-1, degree
2021-12-20T00:04:03,42.805,6.029,-0.058,0.032,-0.016,101.0,101.0,100.0,13.4,1505.2,328.8,-0.8,1.8,2470.512,13.28,0.066,298.9
2021-12-20T00:07:03,42.805,6.029,-0.01,0.026,-0.002,101.0,102.0,100.0,13.3,1505.2,326.6,-0.8,1.8,2470.498,13.28,0.027,339.0
2021-12-20T00:10:03,42.805,6.029,-0.029,0.036,-0.011,102.0,100.0,100.0,13.4,1505.2,326.9,-0.8,1.8,2470.491,13.28,0.046,321.1
2021-12-20T00:13:03,42.805,6.029,0.003,0.027,0.0,100.0,102.0,101.0,13.3,1505.2,329.1,-0.7,1.8,2470.516,13.28,0.027,6.3
2021-12-20T00:16:03,42.805,6.029,-0.005,0.031,0.02,99.0,101.0,101.0,13.3,1505.2,325.3,-0.8,1.8,2470.511,13.28,0.031,350.8
2021-12-20T00:19:03,42.805,6.029,-0.013,0.018,-0.019,103.0,100.0,101.0,13.4,1505.2,330.0,-0.8,1.8,2470.512,13.28,0.022,324.2
2021-12-20T00:22:03,42.805,6.029,-0.038,0.052,0.027,102.0,100.0,100.0,13.4,1505.2,328.8,-0.7,1.8,2470.482,13.28,0.064,323.8
2021-12-20T00:25:03,42.805,6.029,-0.015,0.009,-0.011,101.0,100.0,101.0,13.4,1505.2,326.2,-0.8,1.8,2470.451,13.28,0.017,301.0
2021-12-20T00:28:03,42.805,6.029,-0.03,0.011,-0.052,101.0,103.0,98.0,13.4,1505.2,326.0,-0.8,1.9,2470.492,13.28,0.031,290.1
2021-12-20T00:31:03,42.805,6.029,-0.039,0.055,0.0,100.0,101.0,100.0,13.4,1505.2,326.6,-0.8,1.8,2470.504,13.29,0.067,324.7
2021-12-20T00:34:03,42.805,6.029,-0.016,0.027,0.002,101.0,102.0,100.0,13.4,1505.2,327.1,-0.8,1.8,2470.523,13.28,0.031,329.3
2021-12-20T00:37:03,42.805,6.029,-0.006,0.047,0.004,101.0,103.0,99.0,13.4,1505.2,326.3,-0.8,1.8,2470.492,13.28,0.047,352.7
2021-12-20T00:40:03,42.805,6.029,-0.018,0.036,0.015,101.0,101.0,100.0,13.4,1505.2,328.9,-0.8,1.8,2470.499,13.29,0.04,333.4
2021-12-20T00:43:03,42.805,6.029,-0.025,0.024,0.007,101.0,102.0,99.0,13.3,1505.2,327.5,-0.8,1.8,2470.516,13.29,0.034,313.8
2021-12-20T00:46:03,42.805,6.029,-0.04,0.041,0.028,101.0,102.0,100.0,13.4,1505.2,329.6,-0.7,1.8,2470.554,13.29,0.057,315.7
2021-12-20T00:49:03,42.805,6.029,-0.026,0.031,-0.017,102.0,101.0,100.0,13.3,1505.2,328.0,-0.8,1.8,2470.532,13.29,0.04,320.0
2021-12-20T00:52:03,42.805,6.029,-0.037,0.032,-0.016,101.0,101.0,100.0,13.4,1505.2,328.9,-0.8,1.9,2470.553,13.29,0.048,310.9
2021-12-20T00:55:03,42.805,6.029,-0.03,0.013,-0.04,102.0,100.0,100.0,13.3,1505.2,327.4,-0.7,1.8,2470.53,13.29,0.032,293.4
2021-12-20T00:58:03,42.805,6.029,-0.028,0.034,-0.009,100.0,102.0,100.0,13.4,1505.2,326.5,-0.7,1.8,2470.572,13.29,0.044,320.5
2021-12-20T01:04:03,42.805,6.029,-0.041,0.042,0.009,103.0,104.0,101.0,13.4,1505.2,328.7,-0.8,1.8,2470.594,13.28,0.058,315.7
2021-12-20T01:07:03,42.805,6.029,-0.037,0.053,0.045,101.0,101.0,99.0,13.3,1505.2,324.4,-0.8,1.8,2470.567,13.28,0.064,325.1
2021-12-20T01:10:03,42.805,6.029,-0.016,0.025,-0.02,102.0,100.0,100.0,13.4,1505.2,328.9,-0.8,1.8,2470.624,13.28,0.029,327.4
2021-12-20T01:13:03,42.805,6.029,-0.005,0.031,0.011,102.0,100.0,99.0,13.4,1505.2,327.4,-0.8,1.8,2470.554,13.28,0.031,350.8
2021-12-20T01:16:03,42.805,6.029,-0.019,0.048,0.012,100.0,101.0,100.0,13.4,1505.2,328.2,-0.8,1.8,2470.599,13.28,0.051,338.4
2021-12-20T01:19:03,42.805,6.029,-0.026,0.028,0.005,100.0,104.0,100.0,13.4,1505.2,324.9,-0.7,1.8,2470.61,13.28,0.038,317.1
2021-12-20T01:22:03,42.805,6.029,-0.045,0.02,-0.03,102.0,100.0,100.0,13.4,1505.2,329.3,-0.7,1.9,2470.632,13.28,0.049,294.0
2021-12-20T01:25:03,42.805,6.029,-0.032,0.027,-0.026,101.0,100.0,101.0,13.3,1505.2,330.3,-0.8,1.8,2470.567,13.28,0.041,310.2
2021-12-20T01:28:03,42.805,6.029,-0.035,0.029,0.011,102.0,100.0,100.0,13.3,1505.2,326.6,-0.8,1.8,2470.618,13.28,0.045,309.6
2021-12-20T01:31:03,42.805,6.029,-0.036,0.044,0.005,101.0,102.0,99.0,13.3,1505.2,328.6,-0.7,1.8,2470.58,13.28,0.056,320.7
2021-12-20T01:34:03,42.805,6.029,0.008,0.035,0.018,101.0,102.0,99.0,13.3,1505.2,326.6,-0.8,1.8,2470.639,13.28,0.035,12.9
2021-12-20T01:37:03,42.805,6.029,-0.047,0.018,-0.024,101.0,101.0,99.0,13.3,1505.2,327.9,-0.8,1.8,2470.589,13.28,0.05,291.0
2021-12-20T01:40:03,42.805,6.029,-0.036,0.01,-0.025,101.0,99.0,100.0,13.4,1505.2,324.2,-0.8,1.8,2470.607,13.28,0.037,285.5
2021-12-20T01:43:03,42.805,6.029,-0.016,0.025,0.008,100.0,101.0,100.0,13.4,1505.2,329.6,-0.7,1.8,2470.568,13.29,0.029,327.4
2021-12-20T01:46:03,42.805,6.029,-0.024,0.033,0.006,101.0,101.0,100.0,13.4,1505.2,327.0,-0.8,1.9,2470.591,13.28,0.04,324.0
2021-12-20T01:49:03,42.805,6.029,-0.034,0.036,0.018,101.0,102.0,100.0,13.3,1505.2,330.4,-0.7,1.8,2470.591,13.28,0.049,316.6
2021-12-20T01:52:03,42.805,6.029,-0.032,0.009,-0.025,102.0,102.0,100.0,13.4,1505.2,326.6,-0.7,1.8,2470.599,13.28,0.033,285.7
2021-12-20T01:55:03,42.805,6.029,-0.034,0.036,0.018,100.0,100.0,100.0,13.4,1505.2,329.4,-0.8,1.8,2470.626,13.28,0.049,316.6
2021-12-20T01:58:03,42.805,6.029,-0.048,0.031,0.009,101.0,102.0,100.0,13.4,1505.2,327.0,-0.7,1.8,2470.594,13.28,0.057,302.9
2021-12-20T02:04:03,42.805,6.029,-0.029,0.046,0.018,102.0,101.0,100.0,13.4,1505.2,324.1,-0.8,1.8,2470.644,13.28,0.054,327.8
2021-12-20T02:07:03,42.805,6.029,-0.042,0.031,-0.029,100.0,101.0,100.0,13.4,1505.2,324.8,-0.8,1.8,2470.612,13.28,0.052,306.4
2021-12-20T02:10:03,42.805,6.029,-0.042,0.026,-0.028,101.0,102.0,99.0,13.4,1505.2,328.0,-0.8,1.8,2470.673,13.28,0.049,301.8
2021-12-20T02:13:03,42.805,6.029,-0.031,0.025,-0.022,101.0,102.0,100.0,13.4,1505.2,328.9,-0.7,1.8,2470.661,13.28,0.039,308.9
2021-12-20T02:16:03,42.805,6.029,-0.011,0.018,-0.042,100.0,101.0,101.0,13.4,1505.2,325.0,-0.8,1.8,2470.655,13.28,0.021,328.6
2021-12-20T02:19:03,42.805,6.029,-0.026,0.03,-0.015,101.0,101.0,100.0,13.4,1505.2,326.4,-0.7,1.8,2470.645,13.28,0.039,319.1
2021-12-20T02:22:03,42.805,6.029,-0.008,0.02,0.007,101.0,101.0,100.0,13.4,1505.2,330.7,-0.7,1.8,2470.613,13.28,0.021,338.2
2021-12-20T02:25:03,42.805,6.029,-0.041,0.034,-0.012,103.0,100.0,100.0,13.4,1505.2,327.9,-0.8,1.8,2470.605,13.28,0.053,309.7
2021-12-20T02:28:03,42.805,6.029,-0.031,0.035,-0.022,100.0,101.0,100.0,13.3,1505.2,325.2,-0.8,1.8,2470.661,13.28,0.046,318.5
2021-12-20T02:31:03,42.805,6.029,-0.018,0.031,0.005,102.0,101.0,99.0,13.3,1505.2,325.5,-0.7,1.8,2470.603,13.28,0.035,329.9
2021-12-20T02:34:03,42.805,6.029,-0.039,0.029,0.002,102.0,102.0,100.0,13.3,1505.2,328.7,-0.7,1.8,2470.617,13.28,0.048,306.6
2021-12-20T02:37:03,42.805,6.029,-0.034,0.045,-0.014,100.0,102.0,100.0,13.3,1505.2,331.6,-0.7,1.8,2470.564,13.28,0.056,322.9
2021-12-20T02:40:03,42.805,6.029,-0.036,0.021,-0.028,102.0,102.0,99.0,13.3,1505.2,325.6,-0.8,1.8,2470.616,13.28,0.041,300.3
2021-12-20T02:43:03,42.805,6.029,-0.024,0.009,-0.006,101.0,102.0,100.0,13.3,1505.2,328.5,-0.7,1.8,2470.642,13.28,0.025,290.6
2021-12-20T02:46:03,42.805,6.029,-0.038,0.016,-0.025,101.0,101.0,100.0,13.4,1505.2,330.3,-0.8,1.8,2470.625,13.28,0.041,292.8
2021-12-20T02:49:03,42.805,6.029,-0.016,0.026,0.004,100.0,102.0,101.0,13.4,1505.2,331.2,-0.8,1.8,2470.607,13.29,0.03,328.4
2021-12-20T02:52:03,42.805,6.029,-0.047,0.053,0.016,100.0,102.0,100.0,13.3,1505.2,331.8,-0.7,1.8,2470.605,13.28,0.07,318.4
2021-12-20T02:55:03,42.805,6.029,-0.022,0.026,-0.002,101.0,102.0,99.0,13.3,1505.2,326.6,-0.7,1.8,2470.634,13.28,0.034,319.8
2021-12-20T02:58:03,42.805,6.029,-0.019,0.033,0.031,101.0,100.0,100.0,13.3,1505.2,328.8,-0.8,1.8,2470.607,13.28,0.038,330.1
2021-12-20T03:04:03,42.805,6.029,-0.038,0.033,0.0,102.0,101.0,101.0,13.4,1505.2,326.6,-0.8,1.8,2470.655,13.28,0.05,311.0
2021-12-20T03:07:03,42.805,6.029,-0.03,0.021,-0.028,101.0,102.0,99.0,13.4,1505.2,327.2,-0.7,1.8,2470.64,13.28,0.036,305.0
2021-12-20T03:10:03,42.805,6.029,-0.032,0.028,0.0,98.0,101.0,101.0,13.4,1505.2,326.1,-0.8,1.8,2470.668,13.28,0.042,311.2
2021-12-20T03:13:03,42.805,6.029,-0.026,0.035,0.012,99.0,102.0,100.0,13.4,1505.2,326.6,-0.7,1.8,2470.664,13.28,0.043,323.4
2021-12-20T03:16:03,42.805,6.029,-0.027,0.029,0.015,101.0,102.0,99.0,13.4,1505.2,329.8,-0.8,1.8,2470.673,13.28,0.039,317.0
2021-12-20T03:19:03,42.805,6.029,-0.037,0.036,0.012,100.0,101.0,100.0,13.4,1505.2,325.0,-0.8,1.8,2470.631,13.28,0.051,314.2
2021-12-20T03:22:03,42.805,6.029,-0.024,0.032,0.007,101.0,101.0,100.0,13.3,1505.2,327.6,-0.8,1.8,2470.653,13.28,0.04,323.1
2021-12-20T03:25:03,42.805,6.029,-0.041,0.048,0.007,101.0,100.0,100.0,13.4,1505.2,326.0,-0.7,1.8,2470.641,13.28,0.063,319.5
2021-12-20T03:28:03,42.805,6.029,-0.034,0.049,0.011,102.0,100.0,100.0,13.3,1505.2,331.6,-0.8,1.8,2470.603,13.28,0.059,325.2
2021-12-20T03:31:03,42.805,6.029,-0.038,0.025,0.009,101.0,101.0,100.0,13.4,1505.2,326.1,-0.8,1.8,2470.629,13.28,0.045,303.3
2021-12-20T03:34:03,42.805,6.029,-0.041,0.041,0.028,101.0,102.0,100.0,13.4,1505.2,324.9,-0.8,1.8,2470.661,13.28,0.057,315.0
2021-12-20T03:37:03,42.805,6.029,-0.052,0.035,-0.01,101.0,101.0,100.0,13.4,1505.2,331.6,-0.8,1.8,2470.705,13.28,0.062,303.9
2021-12-20T03:40:03,42.805,6.029,-0.048,0.032,-0.006,100.0,101.0,100.0,13.4,1505.2,326.7,-0.8,1.8,2470.677,13.28,0.057,303.7
2021-12-20T03:43:03,42.805,6.029,-0.034,0.052,-0.032,101.0,102.0,101.0,13.4,1505.2,331.5,-0.7,1.8,2470.657,13.29,0.062,326.8
2021-12-20T03:46:03,42.805,6.029,-0.025,0.026,0.011,101.0,102.0,100.0,13.3,1505.2,324.6,-0.7,1.8,2470.684,13.28,0.036,316.1
2021-12-20T03:49:03,42.805,6.029,-0.039,0.018,-0.028,101.0,101.0,101.0,13.3,1505.2,329.7,-0.8,1.8,2470.659,13.29,0.042,294.8
2021-12-20T03:52:03,42.805,6.029,-0.04,0.039,0.0,101.0,100.0,100.0,13.3,1505.2,326.0,-0.8,1.8,2470.657,13.29,0.055,314.3
2021-12-20T03:55:03,42.805,6.029,-0.045,0.045,0.009,101.0,101.0,100.0,13.4,1505.2,326.6,-0.8,1.8,2470.686,13.29,0.063,315.0
2021-12-20T03:58:03,42.805,6.029,-0.027,0.03,0.0,101.0,101.0,100.0,13.4,1505.2,329.1,-0.8,1.8,2470.677,13.28,0.04,318.0
2021-12-20T04:04:03,42.805,6.029,-0.042,0.037,-0.028,100.0,102.0,100.0,13.3,1505.2,327.7,-0.7,1.8,2470.692,13.28,0.055,311.4
2021-12-20T04:07:03,42.805,6.029,-0.041,0.041,-0.014,101.0,102.0,100.0,13.3,1505.2,326.9,-0.8,1.8,2470.688,13.28,0.057,315.0
2021-12-20T04:10:03,42.805,6.029,-0.05,0.031,0.015,101.0,101.0,101.0,13.3,1505.2,328.1,-0.7,1.8,2470.684,13.28,0.058,301.8
2021-12-20T04:13:03,42.805,6.029,-0.017,0.014,-0.002,102.0,103.0,100.0,13.4,1505.2,331.2,-0.7,1.8,2470.713,13.28,0.022,309.5
2021-12-20T04:16:03,42.805,6.029,-0.02,0.044,0.025,100.0,102.0,100.0,13.4,1505.2,326.8,-0.7,1.8,2470.664,13.28,0.048,335.6
2021-12-20T04:19:03,42.805,6.029,-0.035,0.03,-0.001,101.0,102.0,100.0,13.4,1505.2,331.1,-0.7,1.8,2470.692,13.28,0.046,310.6
2021-12-20T04:22:03,42.805,6.029,-0.021,0.037,0.01,101.0,102.0,100.0,13.3,1505.2,331.5,-0.7,1.8,2470.689,13.29,0.042,330.4
2021-12-20T04:25:03,42.805,6.029,-0.02,0.022,0.01,102.0,101.0,100.0,13.4,1505.2,331.5,-0.7,1.8,2470.688,13.28,0.029,317.7
2021-12-20T04:28:03,42.805,6.029,-0.044,0.032,0.006,103.0,101.0,100.0,13.4,1505.2,330.2,-0.7,1.8,2470.684,13.28,0.054,306.0
2021-12-20T04:31:03,42.805,6.029,-0.04,0.041,0.001,101.0,99.0,101.0,13.4,1505.2,323.9,-0.8,1.8,2470.719,13.28,0.057,315.7
2021-12-20T04:34:03,42.805,6.029,-0.02,0.033,-0.008,102.0,101.0,100.0,13.4,1505.2,324.8,-0.7,1.8,2470.683,13.29,0.038,328.8
2021-12-20T04:37:03,42.805,6.029,-0.02,0.014,0.015,101.0,103.0,100.0,13.4,1505.2,331.7,-0.7,1.8,2470.696,13.29,0.024,305.0
2021-12-20T04:40:03,42.805,6.029,-0.025,0.018,-0.002,101.0,102.0,100.0,13.4,1505.2,327.1,-0.8,1.8,2470.688,13.29,0.03,305.8
2021-12-20T04:43:03,42.805,6.029,-0.045,0.025,0.021,100.0,102.0,100.0,13.3,1505.2,324.9,-0.8,1.8,2470.686,13.29,0.051,299.1
2021-12-20T04:46:03,42.805,6.029,-0.032,0.041,-0.002,101.0,102.0,99.0,13.4,1505.2,328.5,-0.8,1.8,2470.717,13.29,0.052,322.0
2021-12-20T04:49:03,42.805,6.029,-0.041,0.043,0.006,101.0,102.0,100.0,13.3,1505.2,330.1,-0.8,1.8,2470.682,13.28,0.059,316.4
2021-12-20T04:52:03,42.805,6.029,-0.022,0.025,-0.031,100.0,102.0,99.0,13.3,1505.2,329.9,-0.7,1.8,2470.706,13.28,0.033,318.7
2021-12-20T04:55:03,42.805,6.029,-0.051,0.045,0.015,101.0,103.0,99.0,13.4,1505.2,329.2,-0.8,1.8,2470.711,13.28,0.068,311.4
2021-12-20T04:58:03,42.805,6.029,-0.027,0.017,-0.001,101.0,102.0,100.0,13.4,1505.2,329.2,-0.8,1.8,2470.712,13.28,0.031,302.2
2021-12-20T05:04:03,42.805,6.029,-0.039,0.017,-0.014,102.0,101.0,101.0,13.4,1505.2,323.3,-0.8,1.8,2470.705,13.28,0.042,293.5
2021-12-20T05:07:03,42.805,6.029,-0.023,0.044,-0.005,100.0,105.0,99.0,13.3,1505.2,330.1,-0.8,1.8,2470.727,13.28,0.049,332.4
2021-12-20T05:10:03,42.805,6.029,-0.023,0.044,0.01,101.0,104.0,100.0,13.4,1505.2,328.8,-0.8,1.8,2470.694,13.28,0.049,332.4
2021-12-20T05:13:03,42.805,6.029,-0.03,0.038,0.019,102.0,102.0,100.0,13.3,1505.2,328.6,-0.8,1.8,2470.737,13.28,0.048,321.7
2021-12-20T05:16:03,42.805,6.029,-0.016,0.051,0.043,101.0,103.0,100.0,13.3,1505.2,329.9,-0.7,1.8,2470.754,13.28,0.053,342.6
2021-12-20T05:19:03,42.805,6.029,-0.053,0.052,0.004,101.0,102.0,100.0,13.3,1505.2,329.8,-0.8,1.8,2470.709,13.28,0.074,314.5
2021-12-20T05:22:03,42.805,6.029,-0.019,0.031,0.017,100.0,102.0,101.0,13.4,1505.2,328.5,-0.8,1.8,2470.725,13.28,0.036,328.5
2021-12-20T05:25:03,42.805,6.029,-0.038,0.03,0.001,103.0,102.0,100.0,13.4,1505.2,330.3,-0.7,1.8,2470.745,13.28,0.048,308.3
2021-12-20T05:28:03,42.805,6.029,-0.031,0.025,0.006,101.0,102.0,100.0,13.4,1505.2,331.1,-0.8,1.8,2470.723,13.28,0.039,308.9
2021-12-20T05:31:03,42.805,6.029,-0.042,0.017,-0.029,103.0,101.0,100.0,13.3,1505.2,330.5,-0.7,1.8,2470.753,13.28,0.045,292.0
2021-12-20T05:34:03,42.805,6.029,-0.024,0.058,-0.016,101.0,103.0,100.0,13.4,1505.2,330.8,-0.7,1.8,2470.725,13.28,0.062,337.5
2021-12-20T05:37:03,42.805,6.029,-0.031,0.025,0.012,100.0,102.0,100.0,13.4,1505.2,331.6,-0.7,1.8,2470.73,13.28,0.039,308.9
2021-12-20T05:40:03,42.805,6.029,-0.086,0.03,-0.007,102.0,103.0,100.0,13.3,1505.2,326.5,-0.7,1.8,2470.725,13.28,0.091,289.2
2021-12-20T05:43:03,42.805,6.029,-0.034,0.031,0.024,101.0,102.0,99.0,13.4,1505.2,327.1,-0.8,1.8,2470.746,13.28,0.046,312.4
2021-12-20T05:46:03,42.805,6.029,-0.043,0.012,-0.011,101.0,102.0,100.0,13.3,1505.2,324.6,-0.7,1.8,2470.745,13.29,0.044,285.6
2021-12-20T05:49:03,42.805,6.029,-0.044,0.054,0.054,101.0,103.0,100.0,13.4,1505.2,328.5,-0.7,1.9,2470.721,13.29,0.069,320.8
2021-12-20T05:52:03,42.805,6.029,-0.058,0.04,-0.013,100.0,102.0,100.0,13.4,1505.2,331.7,-0.8,1.9,2470.713,13.29,0.07,304.6
2021-12-20T05:55:03,42.805,6.029,-0.035,0.029,0.016,100.0,103.0,100.0,13.3,1505.2,327.3,-0.8,1.8,2470.749,13.28,0.045,309.6
2021-12-20T05:58:03,42.805,6.029,-0.018,0.045,0.031,100.0,101.0,102.0,13.4,1505.2,327.7,-0.8,1.8,2470.699,13.28,0.048,338.2
2021-12-20T06:04:03,42.805,6.029,-0.024,0.054,0.03,101.0,101.0,100.0,13.4,1505.2,327.6,-0.7,1.8,2470.769,13.28,0.059,336.0
2021-12-20T06:07:03,42.805,6.029,-0.032,0.03,-0.002,101.0,101.0,99.0,13.4,1505.2,324.7,-0.8,1.8,2470.738,13.28,0.043,313.1
2021-12-20T06:10:03,42.805,6.029,-0.022,0.034,0.012,101.0,101.0,101.0,13.4,1505.2,326.5,-0.7,1.8,2470.729,13.28,0.04,327.1
2021-12-20T06:13:03,42.805,6.029,-0.05,0.036,0.037,102.0,102.0,100.0,13.4,1505.2,324.6,-0.7,1.9,2470.782,13.28,0.061,305.8
2021-12-20T06:16:03,42.805,6.029,-0.027,0.039,0.036,101.0,103.0,100.0,13.4,1505.2,327.8,-0.8,1.8,2470.761,13.28,0.047,325.3
2021-12-20T06:19:03,42.805,6.029,-0.023,0.041,-0.008,100.0,104.0,100.0,13.4,1505.2,325.7,-0.8,1.8,2470.777,13.28,0.047,330.7
2021-12-20T06:22:03,42.805,6.029,-0.033,0.059,0.008,100.0,103.0,100.0,13.4,1505.2,328.8,-0.8,1.8,2470.747,13.28,0.067,330.8
2021-12-20T06:25:03,42.805,6.029,-0.034,0.035,0.014,101.0,102.0,100.0,13.4,1505.2,326.1,-0.7,1.9,2470.763,13.28,0.048,315.8
2021-12-20T06:28:03,42.805,6.029,-0.058,0.059,0.043,101.0,105.0,100.0,13.4,1505.2,328.6,-0.8,1.8,2470.768,13.28,0.082,315.5
2021-12-20T06:31:03,42.805,6.029,-0.044,0.025,-0.026,101.0,104.0,100.0,13.4,1505.2,326.1,-0.8,1.8,2470.757,13.28,0.05,299.6
2021-12-20T06:34:03,42.805,6.029,-0.039,0.043,0.042,101.0,102.0,100.0,13.4,1505.2,327.2,-0.8,1.8,2470.741,13.28,0.058,317.8
2021-12-20T06:37:03,42.805,6.029,-0.019,0.037,0.009,101.0,102.0,100.0,13.4,1505.2,326.9,-0.8,1.8,2470.779,13.28,0.041,332.8
2021-12-20T06:40:03,42.805,6.029,-0.033,0.034,-0.028,101.0,102.0,99.0,13.4,1505.2,326.6,-0.7,1.8,2470.736,13.28,0.047,315.9
2021-12-20T06:43:03,42.805,6.029,-0.044,0.033,-0.008,100.0,102.0,100.0,13.4,1505.2,327.4,-0.8,1.8,2470.73,13.28,0.055,306.9
2021-12-20T06:46:03,42.805,6.029,-0.026,0.024,0.025,101.0,104.0,100.0,13.4,1505.2,328.8,-0.8,1.8,2470.774,13.28,0.035,312.7
2021-12-20T06:49:03,42.805,6.029,-0.051,0.031,0.003,101.0,103.0,100.0,13.4,1505.2,324.2,-0.8,1.8,2470.757,13.28,0.059,301.3
2021-12-20T06:52:03,42.805,6.029,-0.031,0.039,0.004,101.0,102.0,100.0,13.4,1505.2,330.9,-0.8,1.9,2470.737,13.28,0.049,321.5
2021-12-20T06:55:03,42.805,6.029,-0.029,0.038,0.013,100.0,103.0,100.0,13.4,1505.2,329.1,-0.7,1.8,2470.765,13.28,0.047,322.7
2021-12-20T06:58:03,42.805,6.029,-0.031,0.021,0.0,103.0,100.0,100.0,13.4,1505.2,328.6,-0.7,1.8,2470.715,13.28,0.037,304.1
2021-12-20T07:04:03,42.805,6.029,-0.031,0.062,0.022,100.0,103.0,100.0,13.4,1505.2,328.8,-0.8,1.8,2470.777,13.28,0.069,333.4
2021-12-20T07:07:03,42.805,6.029,-0.052,0.031,0.0,100.0,102.0,100.0,13.4,1505.2,326.7,-0.8,1.8,2470.79,13.28,0.06,300.8
2021-12-20T07:10:03,42.805,6.029,-0.026,0.033,0.023,102.0,103.0,100.0,13.4,1505.2,325.5,-0.8,1.8,2470.769,13.28,0.042,321.8
2021-12-20T07:13:03,42.805,6.029,-0.029,0.056,0.016,101.0,103.0,100.0,13.3,1505.2,328.2,-0.7,1.8,2470.758,13.28,0.063,332.6
2021-12-20T07:16:03,42.805,6.029,-0.042,0.033,0.002,99.0,104.0,100.0,13.3,1505.2,323.7,-0.8,1.8,2470.723,13.28,0.053,308.2
2021-12-20T07:19:03,42.805,6.029,-0.062,0.056,-0.007,100.0,102.0,100.0,13.3,1505.2,325.8,-0.7,1.8,2470.754,13.28,0.083,312.1
2021-12-20T07:22:03,42.805,6.029,-0.033,0.022,-0.018,101.0,100.0,100.0,13.3,1505.2,329.3,-0.7,1.8,2470.746,13.28,0.039,303.7
2021-12-20T07:25:03,42.805,6.029,-0.031,0.037,0.016,102.0,100.0,100.0,13.4,1505.2,326.7,-0.7,1.8,2470.78,13.28,0.048,320.0
2021-12-20T07:28:03,42.805,6.029,-0.053,0.046,0.011,100.0,102.0,100.0,13.4,1505.2,329.3,-0.8,1.8,2470.755,13.28,0.07,311.0
2021-12-20T07:31:03,42.805,6.029,-0.059,0.045,-0.01,100.0,104.0,100.0,13.4,1505.2,325.9,-0.7,1.8,2470.754,13.28,0.074,307.3
2021-12-20T07:34:03,42.805,6.029,-0.065,0.031,0.026,100.0,102.0,100.0,13.4,1505.2,325.2,-0.8,1.8,2470.729,13.28,0.072,295.5
2021-12-20T07:37:03,42.805,6.029,-0.036,0.036,0.005,100.0,102.0,100.0,13.4,1505.2,325.6,-0.8,1.8,2470.685,13.28,0.05,315.0
2021-12-20T07:40:03,42.805,6.029,-0.028,0.04,0.003,102.0,102.0,101.0,13.3,1505.2,329.0,-0.7,1.8,2470.719,13.28,0.048,325.0
2021-12-20T07:43:03,42.805,6.029,-0.017,0.018,0.009,100.0,102.0,100.0,13.4,1505.2,326.0,-0.8,1.8,2470.727,13.28,0.024,316.6
2021-12-20T07:46:03,42.805,6.029,-0.035,0.039,0.008,101.0,101.0,99.0,13.4,1505.2,327.3,-0.7,1.8,2470.773,13.28,0.052,318.1
2021-12-20T07:49:03,42.805,6.029,-0.01,0.019,-0.024,101.0,102.0,100.0,13.3,1505.2,324.5,-0.8,1.8,2470.763,13.28,0.021,332.2
2021-12-20T07:52:03,42.805,6.029,-0.051,0.039,-0.008,100.0,101.0,100.0,13.3,1505.2,324.1,-0.7,1.8,2470.775,13.28,0.064,307.4
2021-12-20T07:55:03,42.805,6.029,-0.036,0.059,0.028,102.0,101.0,99.0,13.4,1505.2,324.5,-0.7,1.8,2470.778,13.28,0.069,328.6
2021-12-20T07:58:03,42.805,6.029,-0.037,0.025,-0.011,99.0,102.0,100.0,13.4,1505.2,325.7,-0.8,1.9,2470.761,13.28,0.044,304.0
2021-12-20T08:04:03,42.805,6.029,-0.041,0.023,0.0,101.0,103.0,100.0,13.4,1505.2,326.0,-0.7,1.8,2470.812,13.28,0.047,299.3
2021-12-20T08:07:03,42.805,6.029,-0.023,0.037,0.01,101.0,102.0,100.0,13.3,1505.2,327.0,-0.7,1.8,2470.839,13.28,0.043,328.1
2021-12-20T08:10:03,42.805,6.029,-0.051,0.055,-0.008,101.0,102.0,100.0,13.4,1505.2,326.2,-0.8,1.8,2470.829,13.28,0.075,317.2
2021-12-20T08:13:03,42.805,6.029,-0.026,0.043,0.005,103.0,100.0,99.0,13.3,1505.2,326.0,-0.8,1.8,2470.799,13.28,0.05,328.8
2021-12-20T08:16:03,42.805,6.029,-0.029,0.032,0.018,101.0,101.0,100.0,13.4,1505.2,328.1,-0.8,1.8,2470.776,13.28,0.043,317.8
2021-12-20T08:19:03,42.805,6.029,-0.033,0.04,0.002,101.0,102.0,100.0,13.3,1505.2,328.9,-0.7,1.8,2470.81,13.28,0.051,320.5
2021-12-20T08:22:03,42.805,6.029,0.002,0.035,0.008,102.0,103.0,99.0,13.4,1505.2,330.1,-0.8,1.8,2470.807,13.28,0.035,3.3
2021-12-20T08:25:03,42.805,6.029,-0.001,0.021,0.004,101.0,102.0,99.0,13.4,1505.2,326.3,-0.7,1.8,2470.814,13.28,0.021,357.3
2021-12-20T08:28:03,42.805,6.029,-0.029,0.032,-0.014,100.0,103.0,100.0,13.4,1505.2,328.5,-0.8,1.8,2470.799,13.28,0.043,317.8
2021-12-20T08:31:03,42.805,6.029,-0.047,0.052,0.0,102.0,103.0,100.0,13.4,1505.2,326.5,-0.8,1.8,2470.82,13.28,0.07,317.9
2021-12-20T08:34:03,42.805,6.029,-0.049,0.051,0.004,101.0,102.0,100.0,13.4,1505.2,326.6,-0.8,1.8,2470.809,13.28,0.07,316.1
2021-12-20T08:37:03,42.805,6.029,-0.033,0.041,0.033,102.0,102.0,101.0,13.3,1505.2,329.1,-0.7,1.8,2470.775,13.28,0.052,321.2
2021-12-20T08:40:03,42.805,6.029,-0.047,0.065,0.024,100.0,104.0,100.0,13.4,1505.2,331.9,-0.7,1.8,2470.799,13.28,0.08,324.1
2021-12-20T08:43:03,42.805,6.029,-0.026,0.031,0.013,103.0,103.0,99.0,13.4,1505.2,331.9,-0.7,1.8,2470.8,13.28,0.04,320.0
2021-12-20T08:46:03,42.805,6.029,-0.04,0.027,0.0,103.0,101.0,99.0,13.3,1505.2,330.6,-0.8,1.8,2470.76,13.28,0.048,304.0
2021-12-20T08:49:03,42.805,6.029,-0.006,0.032,0.015,100.0,102.0,100.0,13.4,1505.2,327.6,-0.7,1.8,2470.757,13.28,0.032,349.4
2021-12-20T08:52:03,42.805,6.029,-0.035,0.042,0.003,104.0,101.0,100.0,13.3,1505.2,329.1,-0.8,1.8,2470.749,13.28,0.054,320.2
2021-12-20T08:55:03,42.805,6.029,-0.038,0.026,0.013,101.0,102.0,100.0,13.3,1505.2,328.9,-0.7,1.8,2470.763,13.28,0.046,304.4
2021-12-20T08:58:03,42.805,6.029,-0.04,0.042,-0.009,100.0,102.0,100.0,13.4,1505.2,330.8,-0.8,1.8,2470.761,13.28,0.057,316.4
2021-12-20T09:04:03,42.805,6.029,-0.014,0.029,0.013,101.0,102.0,99.0,13.4,1505.2,328.9,-0.8,1.8,2470.777,13.28,0.032,334.2
2021-12-20T09:07:03,42.805,6.029,-0.014,0.058,0.052,100.0,102.0,99.0,13.3,1505.2,327.3,-0.8,1.8,2470.75,13.28,0.059,346.4
2021-12-20T09:10:03,42.805,6.029,-0.034,0.026,0.008,101.0,102.0,100.0,13.4,1505.2,331.6,-0.8,1.8,2470.763,13.28,0.042,307.4
2021-12-20T09:13:03,42.805,6.029,-0.039,0.033,0.01,100.0,103.0,99.0,13.4,1505.2,330.5,-0.7,1.8,2470.773,13.28,0.051,310.2
2021-12-20T09:16:03,42.805,6.029,-0.026,0.055,0.036,102.0,101.0,99.0,13.3,1505.2,327.3,-0.8,1.8,2470.747,13.28,0.06,334.7
2021-12-20T09:19:03,42.805,6.029,-0.018,0.045,0.031,102.0,103.0,100.0,13.4,1505.2,327.4,-0.8,1.8,2470.805,13.28,0.048,338.2
2021-12-20T09:22:03,42.805,6.029,-0.02,0.033,0.004,101.0,104.0,100.0,13.3,1505.2,327.3,-0.8,1.8,2470.788,13.28,0.038,328.8
2021-12-20T09:25:03,42.805,6.029,-0.043,0.053,0.004,101.0,101.0,100.0,13.3,1505.2,326.6,-0.7,1.8,2470.732,13.28,0.068,320.9
2021-12-20T09:28:03,42.805,6.029,-0.026,0.021,-0.002,101.0,102.0,100.0,13.3,1505.2,326.8,-0.8,1.8,2470.778,13.28,0.033,308.9
2021-12-20T09:31:03,42.805,6.029,-0.033,0.03,0.006,102.0,101.0,99.0,13.3,1505.2,324.9,-0.8,1.8,2470.72,13.28,0.044,312.3
2021-12-20T09:34:03,42.805,6.029,-0.012,0.039,0.012,101.0,102.0,100.0,13.4,1505.2,329.3,-0.7,1.8,2470.771,13.28,0.04,342.9
2021-12-20T09:37:03,42.805,6.029,-0.007,0.043,0.024,101.0,104.0,99.0,13.4,1505.2,325.9,-0.7,1.8,2470.794,13.28,0.043,350.8
2021-12-20T09:40:03,42.805,6.029,-0.031,0.021,0.059,101.0,102.0,100.0,13.3,1505.2,326.1,-0.7,1.8,2470.756,13.28,0.037,304.1
2021-12-20T09:43:03,42.805,6.029,-0.026,0.046,-0.002,101.0,103.0,101.0,13.4,1505.2,329.6,-0.8,1.8,2470.767,13.28,0.052,330.5
2021-12-20T09:46:03,42.805,6.029,-0.01,0.048,-0.009,102.0,102.0,100.0,13.4,1505.2,330.5,-0.8,1.9,2470.705,13.28,0.049,348.2
2021-12-20T09:49:03,42.805,6.029,-0.005,0.05,0.013,100.0,101.0,101.0,13.4,1505.2,329.9,-0.7,1.8,2470.737,13.28,0.05,354.3
2021-12-20T09:52:03,42.805,6.029,-0.025,0.053,0.031,100.0,101.0,100.0,13.3,1505.2,325.6,-0.7,1.8,2470.74,13.28,0.058,334.7
2021-12-20T09:55:03,42.805,6.029,-0.044,0.044,0.003,100.0,102.0,100.0,13.4,1505.2,326.2,-0.7,1.8,2470.769,13.28,0.062,315.0
2021-12-20T09:58:03,42.805,6.029,-0.024,0.027,0.021,101.0,104.0,100.0,13.4,1505.2,327.7,-0.8,1.8,2470.71,13.28,0.036,318.4